sat.trackr.live / text

‹ back to catalog

STARLINK-5865

NORAD 57053 · 2023-088F

PAYLOAD ACTIVE UNKNOWN

§ Identity

Operator
Country
US
Launch date
2023-06-22
Launch site
AFWTR
Launch vehicle
Mass (kg)
RCS (m²)

Purposes: comms

External: N2YO · Heavens-Above · Gunter

§ Orbital elements

Epoch: 2026-05-25T00:21:02.107008Z

Period
94.27 min
Inclination
43.0038°
Eccentricity
0.0001148
Mean motion
15.27577590 rev/d
Perigee alt
482.3 km
Apogee alt
483.8 km
Semi-major
6,861.2 km
B*
3.2455e-6
RAAN
39.7628°
Arg perigee
271.7552°
Mean anomaly
88.3168°
Rev number
16,200

§ Raw data

STARLINK-58651 57053U 23088F   26145.01460772 -.00000173  00000+0  32455-5 0  99912 57053  43.0038  39.7628 0001148 271.7552  88.3168 15.27577590162009

JSON: /api/v1/satellites/57053 · /tle

For live sub-satellite position, see the globe view (requires WebGL).

§ Visibility from observer

Set your observer location to see the next 7 days of passes ≥ 10°. The values pass through the URL so the page stays shareable.

No JS? Fill the form by hand. The geolocation button needs JavaScript.